| time (UTC) | temp C | wind direction | speed KPH | gust KPH | rain 1hr cm | rain 24hr cm | rain mn cm | humidity % | barometer mb |
| 20260507093210 | 11 | 247 | 0.0 | 9.7 | 0.00 | 0.00 | 0.00 | 70 | 1019.6 |
| 20260507090209 | 11 | 324 | 0.0 | 11.3 | 0.00 | 0.00 | 0.00 | 71 | 1019.9 |
| 20260507083210 | 12 | 317 | 1.6 | 11.3 | 0.00 | 0.00 | 0.00 | 71 | 1019.7 |
| 20260507080210 | 12 | 290 | 0.0 | 9.7 | 0.00 | 0.00 | 0.00 | 70 | 1019.7 |
| 20260507073210 | 12 | 281 | 0.0 | 11.3 | 0.00 | 0.00 | 0.00 | 71 | 1019.7 |
| 20260507070209 | 12 | 292 | 0.0 | 11.3 | 0.00 | 0.00 | 0.00 | 71 | 1019.7 |
| 20260507063209 | 12 | 323 | 0.0 | 4.8 | 0.00 | 0.00 | 0.00 | 72 | 1019.7 |
| 20260507060208 | 12 | 319 | 3.2 | 9.7 | 0.00 | 0.00 | 0.00 | 72 | 1019.7 |
| 20260507053208 | 12 | 292 | 0.0 | 9.7 | 0.00 | 0.00 | 0.00 | 70 | 1019.7 |
| 20260507050208 | 13 | 319 | 3.2 | 14.5 | 0.00 | 0.00 | 0.00 | 69 | 1019.8 |
| 20260507043207 | 13 | 329 | 6.4 | 16.1 | 0.00 | 0.00 | 0.00 | 68 | 1019.7 |
| 20260507040207 | 13 | 214 | 1.6 | 14.5 | 0.00 | 0.00 | 0.00 | 67 | 1019.6 |
| 20260507033207 | 14 | 315 | 0.0 | 12.9 | 0.00 | 0.00 | 0.00 | 67 | 1019.2 |
| 20260507030207 | 15 | 348 | 0.0 | 9.7 | 0.00 | 0.00 | 0.00 | 66 | 1018.8 |
| 20260507023207 | 15 | 330 | 0.0 | 11.3 | 0.00 | 0.00 | 0.00 | 66 | 1018.6 |
| 20260507020207 | 16 | 311 | 0.0 | 16.1 | 0.00 | 0.00 | 0.00 | 64 | 1018.6 |
| 20260507013207 | 16 | 280 | 0.0 | 17.7 | 0.00 | 0.00 | 0.00 | 62 | 1018.6 |
| 20260507010206 | 17 | 340 | 3.2 | 11.3 | 0.00 | 0.00 | 0.00 | 61 | 1018.7 |
| 20260507003206 | 18 | 245 | 0.0 | 11.3 | 0.00 | 0.00 | 0.00 | 59 | 1018.6 |
| 20260507000207 | 18 | 298 | 0.0 | 12.9 | 0.00 | 0.00 | 0.00 | 60 | 1018.5 |
| 20260506233207 | 18 | 355 | 0.0 | 6.4 | 0.00 | 0.00 | 0.00 | 61 | 1018.4 |
| 20260506230207 | 18 | 360 | 0.0 | 8.0 | 0.00 | 0.00 | 0.00 | 61 | 1018.6 |
| 20260506223206 | 18 | 13 | 0.0 | 8.0 | 0.00 | 0.00 | 0.00 | 63 | 1018.8 |
| 20260506220207 | 18 | 281 | 0.0 | 8.0 | 0.00 | 0.00 | 0.00 | 62 | 1019.0 |
| 20260506213206 | 18 | 136 | 0.0 | 6.4 | 0.00 | 0.00 | 0.00 | 61 | 1019.0 |
| 20260506210207 | 17 | 17 | 0.0 | 6.4 | 0.00 | 0.00 | 0.00 | 64 | 1019.3 |
| 20260506203206 | 16 | 296 | 0.0 | 4.8 | 0.00 | 0.00 | 0.00 | 66 | 1019.4 |
| 20260506200206 | 16 | 351 | 0.0 | 6.4 | 0.00 | 0.00 | 0.00 | 68 | 1019.3 |
| 20260506193205 | 16 | 347 | 0.0 | 6.4 | 0.00 | 0.00 | 0.00 | 69 | 1019.7 |
| 20260506190205 | 15 | 346 | 0.0 | 3.2 | 0.00 | 0.00 | 0.00 | 69 | 1019.6 |
| 20260506183205 | 15 | 346 | 0.0 | 3.2 | 0.00 | 0.00 | 0.00 | 69 | 1019.7 |
| 20260506180205 | 15 | 346 | 0.0 | 6.4 | 0.00 | 0.00 | 0.00 | 70 | 1019.6 |
| 20260506163204 | 14 | 321 | 0.0 | 6.4 | 0.00 | 0.00 | 0.00 | 72 | 1019.2 |
| 20260506160204 | 13 | 322 | 3.2 | 8.0 | 0.00 | 0.00 | 0.00 | 73 | 1019.0 |
| 20260506153204 | 12 | 293 | 0.0 | 8.0 | 0.00 | 0.00 | 0.00 | 77 | 1018.7 |
| 20260506150205 | 12 | 320 | 4.8 | 8.0 | 0.00 | 0.00 | 0.00 | 78 | 1019.1 |
| 20260506143205 | 12 | 345 | 0.0 | 8.0 | 0.00 | 0.00 | 0.00 | 79 | 1019.0 |
| 20260506140204 | 12 | 246 | 0.0 | 8.0 | 0.00 | 0.00 | 0.00 | 80 | 1018.3 |
| 20260506133204 | 12 | 251 | 0.0 | 8.0 | 0.00 | 0.00 | 0.00 | 80 | 1018.2 |
| 20260506130204 | 12 | 268 | 0.0 | 1.6 | 0.00 | 0.00 | 0.00 | 80 | 1017.8 |
| 20260506120203 | 13 | 307 | 0.0 | 8.0 | 0.00 | 0.00 | 0.00 | 79 | 1017.6 |
| 20260506110203 | 13 | 294 | 0.0 | 6.4 | 0.00 | 0.00 | 0.00 | 78 | 1017.1 |
| 20260506103202 | 13 | 281 | 0.0 | 1.6 | 0.00 | 0.00 | 0.00 | 78 | 1016.6 |
| 20260506100232 | 13 | 281 | 0.0 | 3.2 | 0.00 | 0.00 | 0.00 | 78 | 1016.5 |